Location: Rometta
(44.2000°N, 10.0500°E)
Time: 12:27:25
(UTC+00:00)

Cosmos 2278 Rocket - Pass Details

Date: 20 January 2021
Orbit: 840 x 847 km, 71.0° (Epoch: 07 March)

Event Time Altitude Azimuth Distance (km) Brightness Sun altitude
Rises 18:17:07 0° 167° (SSE) 3,385 5.3 -21.9°
Reaches altitude 10° 18:19:57 10° 155° (SSE) 2,456 4.4 -22.4°
Enters shadow 18:20:19 12° 152° (SSE) 2,350 4.3 -22.4°
